TimeEST,TemperatureF,Dew PointF,Humidity,Sea Level PressureIn,VisibilityMPH,Wind Direction,Wind SpeedMPH,Gust SpeedMPH,PrecipitationIn,Events,Conditions,WindDirDegrees,DateUTC
12:26 AM,64.4,55.4,73,29.95,10.0,North,9.2,-,N/A,,Overcast,350,2013-03-01 05:26:00
12:35 AM,64.4,53.6,68,29.96,10.0,North,11.5,-,N/A,,Mostly Cloudy,360,2013-03-01 05:35:00
12:53 AM,64.0,53.1,67,29.96,10.0,North,8.1,-,N/A,,Overcast,10,2013-03-01 05:53:00
1:53 AM,63.0,52.0,67,29.96,10.0,NNW,6.9,-,N/A,,Overcast,340,2013-03-01 06:53:00
2:53 AM,63.0,51.1,65,29.95,10.0,North,6.9,-,N/A,,Overcast,350,2013-03-01 07:53:00
3:53 AM,62.1,48.0,60,29.94,10.0,North,9.2,-,N/A,,Overcast,10,2013-03-01 08:53:00
4:53 AM,62.1,48.9,62,29.94,10.0,NNE,6.9,-,N/A,,Overcast,20,2013-03-01 09:53:00
5:53 AM,61.0,48.9,64,29.95,10.0,NNE,5.8,-,N/A,,Overcast,30,2013-03-01 10:53:00
7:53 AM,61.0,48.0,62,29.98,10.0,North,11.5,-,N/A,,Overcast,10,2013-03-01 12:53:00
8:53 AM,64.0,48.0,56,30.00,10.0,North,10.4,-,N/A,,Clear,360,2013-03-01 13:53:00
9:53 AM,63.0,44.1,50,30.00,10.0,North,9.2,-,N/A,,Mostly Cloudy,10,2013-03-01 14:53:00
10:53 AM,64.9,44.1,47,30.01,10.0,NE,5.8,-,N/A,,Mostly Cloudy,40,2013-03-01 15:53:00
11:53 AM,66.0,45.0,47,30.00,10.0,NNW,8.1,-,N/A,,Overcast,340,2013-03-01 16:53:00
1:53 PM,64.0,44.1,48,29.96,10.0,NW,6.9,-,N/A,,Partly Cloudy,320,2013-03-01 18:53:00
2:53 PM,64.0,45.0,50,29.95,10.0,NNW,3.5,-,N/A,,Partly Cloudy,330,2013-03-01 19:53:00
3:53 PM,63.0,44.1,50,29.95,10.0,NW,11.5,-,N/A,,Partly Cloudy,320,2013-03-01 20:53:00
4:53 PM,63.0,46.0,54,29.96,10.0,NW,16.1,20.7,N/A,,Scattered Clouds,320,2013-03-01 21:53:00
5:53 PM,61.0,45.0,56,29.98,10.0,NNW,9.2,-,N/A,,Overcast,340,2013-03-01 22:53:00
6:53 PM,60.1,46.0,60,29.99,10.0,North,9.2,-,N/A,,Mostly Cloudy,360,2013-03-01 23:53:00
7:53 PM,59.0,46.0,62,30.00,10.0,NNW,9.2,-,N/A,,Partly Cloudy,340,2013-03-02 00:53:00
8:53 PM,59.0,45.0,60,30.02,10.0,NNW,9.2,-,N/A,,Clear,340,2013-03-02 01:53:00
9:53 PM,59.0,45.0,60,30.04,10.0,NNW,9.2,-,N/A,,Mostly Cloudy,340,2013-03-02 02:53:00
10:53 PM,57.9,41.0,53,30.03,10.0,NNW,12.7,-,N/A,,Overcast,340,2013-03-02 03:53:00
11:53 PM,57.9,37.0,46,30.03,10.0,NNW,12.7,-,N/A,,Overcast,330,2013-03-02 04:53:00